EW2690 Weather Reports


time (UTC)temp
C
wind
direction
speed
KPH
gust
KPH
rain 1hr
cm
rain 24hr
cm
rain mn
cm
humidity
%
barometer
mb
20260506050332 8 5 1.6 3.2 0.10 3.35 0.13 99 1018.8
20260506050118 8 5 1.6 4.8 0.10 3.35 0.13 99 1018.8
20260506043054 8 302 1.6 4.8 0.20 3.30 0.08 99 1019.1
20260506040354 9 313 1.6 6.4 0.36 3.25 0.03 99 1019.3
20260506040121 9 313 3.2 6.4 0.33 3.23 0.00 99 1019.3
20260506033016 9 104 1.6 3.2 0.33 3.07 3.07 99 1019.0
20260506030332 9 137 0.0 3.2 0.33 2.90 2.90 99 1018.8
20260506030030 9 137 0.0 3.2 0.33 2.90 2.90 99 1018.9
20260506023033 9 137 0.0 1.6 0.25 2.74 2.74 99 1019.1
20260506020346 9 137 0.0 3.2 0.15 2.57 2.57 99 1018.9
20260506020049 9 137 0.0 3.2 0.15 2.57 2.57 99 1018.8
20260506013106 9 137 0.0 1.6 0.08 2.49 2.49 99 1018.5
20260506010318 9 137 0.0 1.6 0.08 2.41 2.41 98 1018.5
20260506010023 9 137 0.0 1.6 0.10 2.41 2.41 98 1018.4
20260506003033 9 152 3.2 4.8 0.51 2.41 2.41 98 1018.1
20260506000332 9 155 3.2 4.8 0.76 2.34 2.34 98 1018.5
20260506000030 9 254 3.2 4.8 0.76 2.31 2.31 98 1019.0
20260505233029 9 253 0.0 3.2 0.74 1.91 1.91 97 1018.2
20260505230323 9 253 0.0 3.2 0.56 1.57 1.57 97 1018.8
20260505230055 9 253 1.6 3.2 0.53 1.52 1.52 97 1018.7
20260505230013 9 253 1.6 3.2 0.53 1.52 1.52 97 1018.7
20260505223056 10 295 1.6 11.3 0.43 1.22 1.17 97 1018.6
20260505220331 10 284 4.8 8.0 0.36 1.04 0.99 96 1018.5
20260505220116 10 275 1.6 4.8 0.38 1.04 0.99 96 1018.3
20260505220034 10 275 1.6 4.8 0.38 1.04 0.99 96 1018.3
20260505213012 10 249 4.8 14.5 0.33 0.79 0.74 96 1018.4
20260505210413 11 284 9.7 17.7 0.48 0.69 0.64 95 1018.3
20260505210110 11 254 6.4 17.7 0.48 0.66 0.61 95 1018.4
20260505203027 12 328 3.2 16.1 0.41 0.46 0.41 95 1017.8
20260505200342 13 282 6.4 9.7 0.15 0.20 0.15 92 1018.0
20260505200104 13 292 6.4 9.7 0.13 0.18 0.13 92 1017.9
20260505193105 14 273 9.7 17.7 0.00 0.05 0.00 85 1017.9
20260505190313 15 308 11.3 22.5 0.00 0.05 0.00 81 1017.7
20260505190058 15 280 14.5 22.5 0.00 0.05 0.00 81 1017.7
20260505183033 15 324 11.3 22.5 0.00 0.05 0.00 83 1017.9
20260505180325 16 273 11.3 22.5 0.00 0.05 0.00 82 1017.7
20260505180048 16 289 8.0 22.5 0.00 0.05 0.00 81 1017.7
20260505173022 16 303 11.3 20.9 0.00 0.05 0.00 79 1017.4
20260505170317 17 316 16.1 27.4 0.00 0.05 0.00 76 1017.5
20260505170055 17 321 14.5 27.4 0.00 0.05 0.00 76 1017.4
20260505163025 19 276 16.1 33.8 0.00 0.05 0.00 69 1016.8
20260505160347 19 303 12.9 24.1 0.00 0.05 0.00 68 1016.7
20260505160105 19 266 11.3 22.5 0.00 0.05 0.00 68 1016.7
20260505153042 20 302 9.7 24.1 0.00 0.05 0.00 64 1015.7
20260505150314 18 263 14.5 24.1 0.00 0.05 0.00 67 1016.4
20260505140430 18 231 12.9 29.0 0.00 0.05 0.00 70 1015.3
20260505140327 18 231 12.9 29.0 0.00 0.05 0.00 70 1015.3
20260505123053 18 210 14.5 29.0 0.00 0.05 0.00 65 1014.5
20260505120408 18 234 8.0 19.3 0.00 0.05 0.00 66 1014.3
20260505120022 18 252 9.7 19.3 0.00 0.05 0.00 65 1014.2
20260505113105 18 272 12.9 27.4 0.00 0.05 0.00 64 1014.3
20260505113023 18 272 12.9 27.4 0.00 0.05 0.00 64 1014.3
20260505110319 18 244 11.3 20.9 0.00 0.05 0.00 66 1013.8
20260505100414 18 205 8.0 16.1 0.00 0.05 0.00 65 1013.0
20260505100030 18 222 9.7 24.1 0.00 0.05 0.00 65 1013.0
20260505093054 19 254 8.0 33.8 0.00 0.05 0.00 63 1012.6
20260505090353 19 214 14.5 24.1 0.00 0.05 0.00 64 1012.4
20260505090112 19 206 11.3 24.1 0.00 0.05 0.00 64 1012.5
20260505083035 19 236 11.3 27.4 0.00 0.05 0.00 63 1012.5
20260505080355 20 248 16.1 33.8 0.00 0.05 0.00 61 1012.2
20260505080030 20 232 16.1 24.1 0.00 0.05 0.00 61 1012.3
20260505073049 20 196 14.5 35.4 0.00 0.05 0.00 60 1012.0
20260505070424 20 221 17.7 45.1 0.00 0.05 0.00 63 1012.0
20260505070321 20 221 17.7 45.1 0.00 0.05 0.00 63 1012.0
20260505070104 20 229 12.9 45.1 0.00 0.05 0.00 63 1012.0
20260505063046 18 211 12.9 30.6 0.00 0.05 0.00 67 1012.3
20260505060404 18 203 9.7 20.9 0.00 0.05 0.00 68 1012.8
20260505060018 18 221 9.7 20.9 0.00 0.05 0.00 68 1012.8